Regional Weather Roundup
Issued by NWS

Home | Current Version | Previous Version | Graphics & Text | Print | Product List | Glossary On
Versions: 1 2 3 4 5 6 7 8 9 10 11 12 13 14 15 16 17 18 19 20 21 22 23 24 25 26 27 28 29 30 31 32 33 34 35 36 37 38 39 40 41 42 43 44 45 46 47 48 49 50
000
ASUS45 KBOU 101710
RWRCO

WEATHER ROUNDUP FOR COLORADO
NATIONAL WEATHER SERVICE DENVER/BOULDER CO
1100 AM MDT THU JUL 10 2014

NOTE: "FAIR" INDICATES FEW OR NO CLOUDS BELOW 12000 FEET WITH NO
SIGNIFICANT WEATHER AND/OR OBSTRUCTIONS TO VISIBILITY.

COZ001>005-013-030-031-101800-
...NORTHWEST COLORADO...

CITY           SKY/WX    TMP DP  RH WIND       PRES   REMARKS
CRAIG          MOSUNNY   76  50  40 CALM      30.18F
HAYDEN         MOSUNNY   75  45  33 S6        30.21F
MEEKER         MOSUNNY   79  49  34 CALM      30.19F
MOUNT WERNER   MOSUNNY   61  37  41 W6        30.53R
STEAMBOAT SPGS MOSUNNY   74  43  33 CALM      30.24S
WALDEN         SUNNY     72  43  35 SW8       30.30F
$$

COZ006>008-011-101800-
...WEST CENTRAL VALLEYS...

CITY           SKY/WX    TMP DP  RH WIND       PRES   REMARKS
GRAND JUNCTION SUNNY     82  48  30 VRB5      30.10F
MONTROSE       SUNNY     82  48  30 VRB7      30.18F
EAGLE          NOT AVBL
RIFLE          MOSUNNY   79  46  31 N5        30.14F
DELTA          SUNNY     84  46  26 E5        30.14F
NUCLA          MOSUNNY   79  46  31 CALM      30.22F
$$

COZ017>023-064>068-101800-
...SOUTHWEST COLORADO...

CITY           SKY/WX    TMP DP  RH WIND       PRES   REMARKS
DURANGO        SUNNY     73  50  44 CALM      30.25F
CORTEZ         SUNNY     80  52  37 VRB6      30.20S
PAGOSA SPRINGS SUNNY     71  46  40 W6        30.31F
TELLURIDE      NOT AVBL
WOLF CREEK PAS NOT AVBL
$$

COZ009-010-012-014-032>034-037-058>063-101800-
...CENTRAL COLORADO...

CITY           SKY/WX    TMP DP  RH WIND       PRES   REMARKS
ASPEN          SUNNY     75  42  30 VRB6      30.30F
BUENA VISTA    SUNNY     77  36  22 S7        30.29F
COPPER MTN     PTSUNNY   61  36  39 W7        30.62S
BERTHOUD PASS  FAIR      52  37  58 N5        30.67S
COTTONWOOD PAS SUNNY     73  34  23 SE7       30.44F
GUNNISON       NOT AVBL
KREMMLING      SUNNY     73  41  31 SW5       30.28F
LEADVILLE      MOSUNNY   67  36  31 W8        30.43F HAZE
MONARCH PASS   SUNNY     54  41  62 SW9       30.72S
SALIDA         SUNNY     79  42  26 SE3       30.33F
SUNLIGHT       MOSUNNY   59  46  63 CALM      30.55S
WILKERSON PASS SUNNY     63  32  31 SE7       30.59S
$$

COZ069>075-101800-
...SAN LUIS VALLEY/SANGRE DE CRISTO MOUNTAINS...

CITY           SKY/WX    TMP DP  RH WIND       PRES   REMARKS
ALAMOSA        SUNNY     73  46  38 W8        30.30F
LA VETA PASS   SUNNY     64  45  48 W6        30.49R
SAGUACHE       NOT AVBL
$$

COZ035-036-038>040-101800-
...NORTHERN COLORADO FRONT RANGE...

CITY           SKY/WX    TMP DP  RH WIND       PRES   REMARKS
DENVER INTL AP MOSUNNY   88  41  19 NE5       30.07S
DMNS CITY PARK   N/A     89  40  18 E5        30.06F
AURORA         MOSUNNY   86  43  22 VRB2      30.10S
FRONT RANGE AP NOT AVBL
ERIE MUNI ARPT SUNNY     89  41  18 E8        30.05S
BOULDER MUN AP SUNNY     86  46  25 NE3       30.06S
CENTENNIAL     MOSUNNY   86  36  16 N7        30.11S
BROOMFIELD     NOT AVBL
FORT COLLINS   SUNNY     84  55  37 E8        30.04S
LONGMONT       SUNNY     89  51  27 SE5       30.06S
$$

COZ041-046-047-076>085-087-088-101800-
...PIKES PEAK/PALMER DIVIDE AND SOUTHERN FOOTHILLS...

CITY           SKY/WX    TMP DP  RH WIND       PRES   REMARKS
COLO. SPRINGS  MOSUNNY   84  46  26 SE17      30.15R
A. F. ACADEMY  SUNNY     82  38  20 VRB3      30.16S
ELLICOTT       NOT AVBL
FALCON         SUNNY     83  37  19 E6        30.21S
FORT CARSON    SUNNY     83  49  29 SE16G22   30.12R
LIMON          SUNNY     80  52  37 VRB6      30.09S
MONUMENT HILL  SUNNY     82  36  18 N13       30.20F
TRINIDAD       SUNNY     87  42  20 NE5       30.12S
$$

COZ042>045-048>051-090-091-101800-
...NORTHEAST COLORADO...

CITY           SKY/WX    TMP DP  RH WIND       PRES   REMARKS
GREELEY ARPT   NOT AVBL
AKRON          SUNNY     82  54  37 S12G24    30.04S
BURLINGTON     SUNNY     79  61  53 S15G24    30.03R
WRAY           SUNNY     86  57  38 S14G20    29.99F
STERLING       SUNNY     86  61  42 S12       29.97F
HOLYOKE        SUNNY     82  61  47 S12G18    29.99F
FORT MORGAN    SUNNY     83  51  32 S6        30.03S
$$

COZ086-089-092>099-101800-
...SOUTHEAST COLORADO...

CITY           SKY/WX    TMP DP  RH WIND       PRES   REMARKS
PUEBLO         SUNNY     84  50  30 E8        30.04S
LA JUNTA       SUNNY     84  51  31 S3        30.01F
LAMAR          SUNNY     90  48  23 SE10G16   29.96F
SPRINGFIELD      N/A     90  48  23 S10       30.02F
$$


USA.gov is the U.S. government's official web portal to all federal, state and local government web resources and services.